Location: Cary
(35.7910°N, 78.7810°W)
Time: 11:20:16
(UTC-05:00)

N. Korean satellite - Pass Details

Date: 29 November 2021
Orbit: 447 x 491 km, 97.3° (Epoch: 25 January)

Event Time Altitude Azimuth Distance (km) Brightness Sun altitude
Rises 05:26:15 0° 11° (N) 2,465 10.1 -19.7°
Reaches altitude 10° 05:28:18 10° 12° (NNE) 1,584 9.1 -19.3°
Maximum altitude 05:31:41 89° 80° (E) 452 6.3 -18.6°
Drops below altitude 10° 05:35:02 10° 192° (SSW) 1,564 9.2 -18.0°
Sets 05:37:03 0° 192° (SSW) 2,431 10.2 -17.6°
